Time,TemperatureF,DewpointF,PressureIn,WindDirection,WindDirectionDegrees,WindSpeedMPH,WindSpeedGustMPH,Humidity,HourlyPrecipIn,Conditions,Clouds,dailyrainin,SoftwareType,DateUTC
2013-04-12 10:44:00,60.0,37.0,-100.00,NW,314,4.0,9.0,43,-99.99,,,-99.99,,2013-04-12 17:44:00,
2013-04-12 10:56:00,61.0,39.0,-100.00,NW,317,6.0,11.0,44,-99.99,,,-99.99,,2013-04-12 17:56:00,
2013-04-12 11:07:00,61.0,40.0,-100.00,NW,316,5.0,9.0,46,-99.99,,,-99.99,,2013-04-12 18:07:00,
2013-04-12 11:14:00,61.0,41.0,-100.00,NW,310,5.0,9.0,47,-99.99,,,-99.99,,2013-04-12 18:14:00,
2013-04-12 11:29:00,61.0,42.0,-100.00,NW,310,7.0,11.0,49,-99.99,,,-99.99,,2013-04-12 18:29:00,
2013-04-12 12:26:00,63.0,44.0,-100.00,NW,315,7.0,9.0,49,-99.99,,,-99.99,,2013-04-12 19:26:00,
2013-04-12 12:32:00,65.0,44.0,-100.00,NW,309,9.0,13.0,46,-99.99,,,-99.99,,2013-04-12 19:32:00,
2013-04-12 12:42:00,65.0,43.0,-100.00,WNW,303,11.0,15.0,45,-99.99,,,-99.99,,2013-04-12 19:42:00,
2013-04-12 12:52:00,65.0,44.0,-100.00,NW,304,11.0,15.0,47,-99.99,,,-99.99,,2013-04-12 19:52:00,
2013-04-12 13:02:00,65.0,44.0,-100.00,NW,306,10.0,14.0,47,-99.99,,,-99.99,,2013-04-12 20:02:00,
2013-04-12 13:10:00,68.0,45.0,-100.00,NW,306,11.0,15.0,44,-99.99,,,-99.99,,2013-04-12 20:10:00,
2013-04-12 13:12:00,66.0,45.0,-100.00,NW,310,9.0,13.0,46,-99.99,,,-99.99,,2013-04-12 20:12:00,
2013-04-12 13:22:00,67.0,45.0,-100.00,NW,306,8.0,14.0,45,-99.99,,,-99.99,,2013-04-12 20:22:00,
2013-04-12 13:32:00,68.0,45.0,-100.00,WNW,293,11.0,15.0,44,-99.99,,,-99.99,,2013-04-12 20:32:00,
2013-04-12 13:42:00,68.0,45.0,-100.00,NW,306,11.0,15.0,44,-99.99,,,-99.99,,2013-04-12 20:42:00,
2013-04-12 13:52:00,68.0,45.0,-100.00,NW,306,11.0,15.0,44,-99.99,,,-99.99,,2013-04-12 20:52:00,
2013-04-12 14:02:00,68.0,45.0,-100.00,NW,306,11.0,15.0,44,-99.99,,,-99.99,,2013-04-12 21:02:00,
2013-04-12 16:03:00,71.0,45.0,-100.00,NW,308,6.0,10.0,40,-99.99,,,-99.99,,2013-04-12 23:03:00,
2013-04-12 16:12:00,72.0,47.0,-100.00,NW,313,6.0,15.0,41,-99.99,,,-99.99,,2013-04-12 23:12:00,
2013-04-12 16:22:00,71.0,46.0,-100.00,NW,312,6.0,11.0,41,-99.99,,,-99.99,,2013-04-12 23:22:00,
2013-04-12 16:42:00,71.0,47.0,-100.00,WNW,295,8.0,12.0,43,-99.99,,,-99.99,,2013-04-12 23:42:00,
2013-04-12 16:52:00,70.0,48.0,-100.00,WNW,283,7.0,12.0,45,-99.99,,,-99.99,,2013-04-12 23:52:00,
2013-04-12 17:02:00,69.0,48.0,-100.00,WNW,294,11.0,14.0,47,-99.99,,,-99.99,,2013-04-13 00:02:00,
2013-04-12 17:22:00,68.0,49.0,-100.00,WNW,289,9.0,13.0,50,-99.99,,,-99.99,,2013-04-13 00:22:00,
2013-04-12 17:32:00,68.0,49.0,-100.00,WNW,302,10.0,15.0,51,-99.99,,,-99.99,,2013-04-13 00:32:00,
2013-04-12 17:42:00,68.0,49.0,-100.00,WNW,302,10.0,15.0,51,-99.99,,,-99.99,,2013-04-13 00:42:00,
2013-04-12 17:52:00,66.0,49.0,-100.00,WNW,299,10.0,13.0,54,-99.99,,,-99.99,,2013-04-13 00:52:00,
2013-04-12 18:02:00,65.0,49.0,-100.00,NW,305,9.0,12.0,56,-99.99,,,-99.99,,2013-04-13 01:02:00,
2013-04-12 18:12:00,65.0,49.0,-100.00,WNW,295,7.0,9.0,56,-99.99,,,-99.99,,2013-04-13 01:12:00,
2013-04-12 18:22:00,65.0,49.0,-100.00,WNW,298,7.0,9.0,57,-99.99,,,-99.99,,2013-04-13 01:22:00,
2013-04-12 18:32:00,64.0,49.0,-100.00,WNW,299,6.0,8.0,58,-99.99,,,-99.99,,2013-04-13 01:32:00,
2013-04-12 18:40:00,62.0,50.0,-100.00,WNW,303,5.0,6.0,64,-99.99,,,-99.99,,2013-04-13 01:40:00,
2013-04-12 18:42:00,64.0,50.0,-100.00,WNW,285,7.0,11.0,60,-99.99,,,-99.99,,2013-04-13 01:42:00,
2013-04-12 18:52:00,63.0,49.0,-100.00,WNW,301,6.0,9.0,61,-99.99,,,-99.99,,2013-04-13 01:52:00,
2013-04-12 19:01:00,62.0,49.0,-100.00,WNW,299,5.0,7.0,62,-99.99,,,-99.99,,2013-04-13 02:01:00,
2013-04-12 19:12:00,62.0,49.0,-100.00,WNW,299,5.0,7.0,62,-99.99,,,-99.99,,2013-04-13 02:12:00,
2013-04-12 19:20:00,58.0,49.0,-100.00,NNW,341,1.0,4.0,71,-99.99,,,-99.99,,2013-04-13 02:20:00,
2013-04-12 19:22:00,62.0,50.0,-100.00,WNW,303,5.0,6.0,64,-99.99,,,-99.99,,2013-04-13 02:22:00,
2013-04-12 19:32:00,62.0,50.0,-100.00,WNW,303,5.0,6.0,64,-99.99,,,-99.99,,2013-04-13 02:32:00,
2013-04-12 19:52:00,58.0,49.0,-100.00,NNW,341,1.0,4.0,71,-99.99,,,-99.99,,2013-04-13 02:52:00,
2013-04-12 20:02:00,58.0,49.0,-100.00,NNW,341,1.0,4.0,71,-99.99,,,-99.99,,2013-04-13 03:02:00,
2013-04-12 20:12:00,58.0,49.0,-100.00,NNW,341,1.0,4.0,71,-99.99,,,-99.99,,2013-04-13 03:12:00,
2013-04-12 22:02:00,56.0,42.0,-100.00,SE,135,6.0,9.0,59,-99.99,,,-99.99,,2013-04-13 05:02:00,
2013-04-12 22:12:00,55.0,40.0,-100.00,SE,125,5.0,7.0,57,-99.99,,,-99.99,,2013-04-13 05:12:00,
2013-04-12 22:22:00,55.0,41.0,-100.00,ESE,117,6.0,8.0,60,-99.99,,,-99.99,,2013-04-13 05:22:00,
2013-04-12 22:32:00,57.0,36.0,-100.00,SE,131,6.0,10.0,46,-99.99,,,-99.99,,2013-04-13 05:32:00,
2013-04-12 22:42:00,57.0,36.0,-100.00,SE,131,6.0,10.0,46,-99.99,,,-99.99,,2013-04-13 05:42:00,
2013-04-12 22:52:00,56.0,38.0,-100.00,ESE,114,6.0,7.0,51,-99.99,,,-99.99,,2013-04-13 05:52:00,
2013-04-12 23:02:00,55.0,36.0,-100.00,SE,129,6.0,8.0,49,-99.99,,,-99.99,,2013-04-13 06:02:00,
2013-04-12 23:12:00,54.0,36.0,-100.00,SE,124,5.0,6.0,50,-99.99,,,-99.99,,2013-04-13 06:12:00,
2013-04-12 23:23:00,54.0,36.0,-100.00,SE,126,5.0,6.0,50,-99.99,,,-99.99,,2013-04-13 06:23:00,
2013-04-12 23:33:00,53.0,35.0,-100.00,ESE,123,5.0,6.0,51,-99.99,,,-99.99,,2013-04-13 06:33:00,
2013-04-12 23:43:00,53.0,36.0,-100.00,ESE,118,5.0,6.0,52,-99.99,,,-99.99,,2013-04-13 06:43:00,
2013-04-12 23:53:00,53.0,36.0,-100.00,SE,131,6.0,7.0,52,-99.99,,,-99.99,,2013-04-13 06:53:00,